FW1128 Weather Reports


time (UTC)temp
C
wind
direction
speed
KPH
gust
KPH
rain 1hr
cm
rain 24hr
cm
rain mn
cm
humidity
%
barometer
mb
20260507194044 21 270 8.0 17.7 0.00 0.00 0.00 71 1016.6
20260507193024 21 248 9.7 19.3 0.00 0.00 0.00 71 1016.7
20260507192023 21 293 11.3 17.7 0.00 0.00 0.00 70 1016.8
20260507191023 21 293 11.3 22.5 0.00 0.00 0.00 71 1016.9
20260507190023 21 293 11.3 19.3 0.00 0.00 0.00 70 1016.9
20260507185023 21 293 11.3 17.7 0.00 0.00 0.00 70 1017.0
20260507184024 21 293 11.3 22.5 0.00 0.00 0.00 68 1017.1
20260507183044 21 315 9.7 16.1 0.00 0.00 0.00 70 1017.2
20260507182023 21 270 6.4 14.5 0.00 0.00 0.00 71 1017.2
20260507181024 20 315 8.0 16.1 0.00 0.00 0.00 71 1017.2
20260507180103 20 248 6.4 12.9 0.00 0.00 0.00 72 1017.1
20260507175104 20 315 6.4 11.3 0.00 0.00 0.00 73 1017.3
20260507174023 20 293 8.0 17.7 0.00 0.00 0.00 74 1017.4
20260507173023 19 270 4.8 12.9 0.00 0.00 0.00 76 1017.5
20260507172023 19 293 6.4 16.1 0.00 0.00 0.00 76 1017.4
20260507171023 18 315 6.4 12.9 0.00 0.00 0.00 77 1017.4
20260507170023 18 0.0 3.2 0.00 0.00 0.00 80 1017.4
20260507165023 17 293 6.4 9.7 0.00 0.00 0.00 82 1017.5
20260507164024 17 248 3.2 8.0 0.00 0.00 0.00 83 1017.5
20260507163023 17 315 1.6 6.4 0.00 0.00 0.00 85 1017.5
20260507162024 17 0.0 4.8 0.00 0.00 0.00 87 1017.6
20260507161023 16 0.0 1.6 0.00 0.00 0.00 89 1017.6
20260507160023 16 0.0 1.6 0.00 0.00 0.00 91 1017.6
20260507155023 15 0.0 1.6 0.00 0.00 0.00 92 1017.7
20260507154023 15 225 1.6 4.8 0.00 0.00 0.00 92 1017.8
20260507153103 15 0.0 3.2 0.00 0.00 0.00 93 1017.6
20260507152023 15 0.0 1.6 0.00 0.00 0.00 93 1017.7
20260507151023 15 0.0 0.0 0.00 0.00 0.00 93 1017.6
20260507150023 14 0.0 1.6 0.00 0.00 0.00 93 1017.6
20260507145023 14 0.0 1.6 0.00 0.00 0.00 93 1017.4
20260507144023 14 0.0 1.6 0.00 0.00 0.00 93 1017.5
20260507143043 13 0.0 3.2 0.00 0.00 0.00 93 1017.4
20260507142023 13 0.0 0.0 0.00 0.00 0.00 93 1017.4
20260507141023 13 0.0 3.2 0.00 0.00 0.00 93 1017.3
20260507140043 13 0.0 0.0 0.00 0.00 0.00 92 1017.2
20260507135123 13 0.0 3.2 0.00 0.00 0.00 92 1017.2
20260507134023 13 0.0 0.0 0.00 0.00 0.00 92 1017.1
20260507133023 12 0.0 0.0 0.00 0.00 0.00 92 1017.0
20260507132043 12 0.0 0.0 0.00 0.00 0.00 92 1017.0
20260507131023 12 0.0 0.0 0.00 0.00 0.00 92 1017.0
20260507130103 12 0.0 0.0 0.00 0.00 0.00 92 1016.9
20260507125023 12 0.0 0.0 0.00 0.00 0.00 91 1017.0
20260507124023 12 0.0 0.0 0.00 0.00 0.00 91 1016.7
20260507123043 12 0.0 0.0 0.00 0.00 0.00 92 1016.7
20260507122023 12 0.0 0.0 0.00 0.00 0.00 91 1016.6
20260507121023 12 0.0 0.0 0.00 0.00 0.00 91 1016.7
20260507120023 13 0.0 0.0 0.00 0.00 0.00 91 1016.6
20260507115023 13 0.0 0.0 0.00 0.00 0.00 91 1016.5
20260507114023 13 0.0 0.0 0.00 0.00 0.00 91 1016.6
20260507113023 13 0.0 0.0 0.00 0.00 0.00 91 1016.5
20260507112023 13 0.0 0.0 0.00 0.00 0.00 91 1016.6
20260507111043 13 0.0 0.0 0.00 0.00 0.00 91 1016.7
20260507110023 13 0.0 0.0 0.00 0.00 0.00 91 1016.7
20260507105022 13 0.0 0.0 0.00 0.00 0.00 91 1016.8
20260507104022 13 0.0 0.0 0.00 0.00 0.00 91 1016.9
20260507103023 13 0.0 0.0 0.00 0.00 0.00 91 1017.1
20260507102023 13 0.0 0.0 0.00 0.00 0.00 91 1017.1
20260507101023 13 0.0 0.0 0.00 0.00 0.00 90 1017.2
20260507100023 13 0.0 0.0 0.00 0.00 0.00 90 1017.1
20260507095023 13 0.0 0.0 0.00 0.00 0.00 90 1017.2
20260507094023 14 0.0 0.0 0.00 0.00 0.00 90 1017.2
20260507093042 14 0.0 0.0 0.00 0.00 0.00 90 1017.4
20260507092023 14 0.0 0.0 0.00 0.00 0.00 90 1017.5
20260507091023 14 0.0 0.0 0.00 0.00 0.00 90 1017.5
20260507090022 14 0.0 0.0 0.00 0.00 0.00 90 1017.7
20260507085023 14 0.0 0.0 0.00 0.00 0.00 90 1017.9
20260507084022 14 0.0 0.0 0.00 0.00 0.00 90 1017.9
20260507083023 14 0.0 0.0 0.00 0.00 0.00 90 1018.0
20260507082043 15 0.0 0.0 0.00 0.00 0.00 90 1018.1
20260507081022 15 0.0 0.0 0.00 0.00 0.00 89 1018.1
20260507080023 15 0.0 0.0 0.00 0.00 0.00 89 1018.2
20260507075042 15 0.0 0.0 0.00 0.00 0.00 89 1018.2
20260507074043 15 0.0 0.0 0.00 0.00 0.00 89 1018.3
20260507073023 15 0.0 0.0 0.00 0.00 0.00 89 1018.0
20260507072022 15 0.0 0.0 0.00 0.00 0.00 89 1018.3
20260507071023 15 0.0 1.6 0.00 0.00 0.00 88 1018.2
20260507070023 15 0.0 0.0 0.00 0.00 0.00 88 1018.4
20260507065022 15 0.0 0.0 0.00 0.00 0.00 88 1018.4
20260507064022 15 0.0 0.0 0.00 0.00 0.00 88 1018.5
20260507063022 15 0.0 0.0 0.00 0.00 0.00 88 1018.6
20260507062022 15 0.0 0.0 0.00 0.00 0.00 88 1018.6
20260507061022 15 0.0 0.0 0.00 0.00 0.00 87 1018.6
20260507055102 16 0.0 0.0 0.00 0.00 0.00 87 1018.4
20260507054022 16 0.0 0.0 0.00 0.00 0.00 87 1018.5
20260507053102 16 0.0 1.6 0.00 0.00 0.00 87 1018.5
20260507052022 16 0.0 3.2 0.00 0.00 0.00 87 1018.6
20260507051022 16 0.0 3.2 0.00 0.00 0.00 86 1018.6
20260507050022 16 0.0 3.2 0.00 0.00 0.00 86 1018.5
20260507045022 16 0.0 1.6 0.00 0.00 0.00 86 1018.5
20260507044022 16 293 1.6 6.4 0.00 0.00 0.00 86 1018.4
20260507043042 16 315 1.6 3.2 0.00 0.00 0.00 85 1018.3
20260507042022 16 315 1.6 4.8 0.00 0.00 0.00 85 1018.3
20260507041022 16 338 1.6 6.4 0.00 0.00 0.00 85 1018.1
20260507040042 16 338 1.6 6.4 0.00 0.00 0.00 84 1018.2
20260507035023 16 315 3.2 6.4 0.00 0.00 0.00 84 1018.0
20260507034022 16 315 4.8 6.4 0.00 0.00 0.00 83 1017.9
20260507033022 16 315 3.2 8.0 0.00 0.00 0.00 83 1017.6
20260507032022 16 338 4.8 14.5 0.00 0.00 0.00 82 1017.6
20260507031041 17 315 3.2 8.0 0.00 0.00 0.00 82 1017.5
20260507030042 17 315 3.2 9.7 0.00 0.00 0.00 81 1017.5
20260507025042 17 293 3.2 8.0 0.00 0.00 0.00 81 1017.4
20260507024042 17 293 6.4 12.9 0.00 0.00 0.00 79 1017.3
20260507023022 17 315 4.8 11.3 0.00 0.00 0.00 78 1017.3
20260507022022 18 338 6.4 16.1 0.00 0.00 0.00 75 1017.3
20260507021022 18 293 6.4 11.3 0.00 0.00 0.00 74 1017.3
20260507020024 18 315 4.8 9.7 0.00 0.00 0.00 73 1017.4
20260507015024 19 315 6.4 14.5 0.00 0.00 0.00 72 1017.3
20260507014024 19 338 4.8 11.3 0.00 0.00 0.00 72 1017.3
20260507013024 19 315 6.4 14.5 0.00 0.00 0.00 70 1017.2
20260507012044 19 338 8.0 17.7 0.00 0.00 0.00 70 1017.1
20260507011023 20 315 6.4 17.7 0.00 0.00 0.00 67 1017.1
20260507010024 20 315 6.4 16.1 0.00 0.00 0.00 65 1017.1
20260507005024 20 338 9.7 17.7 0.00 0.00 0.00 63 1017.1
20260507004024 20 338 8.0 17.7 0.00 0.00 0.00 65 1017.1
20260507003022 20 23 4.8 16.1 0.00 0.00 0.00 65 1017.0
20260507002104 20 338 6.4 14.5 0.00 0.00 0.00 66 1017.0
20260507001023 20 315 9.7 20.9 0.00 0.00 0.00 65 1017.0
20260507000024 20 293 11.3 20.9 0.00 0.00 0.00 64 1017.0
20260506235044 20 293 8.0 19.3 0.00 0.00 0.00 64 1016.8
20260506234024 21 315 8.0 17.7 0.00 0.00 0.00 64 1016.9
20260506233024 20 315 6.4 19.3 0.00 0.00 0.00 66 1016.9
20260506232024 20 293 9.7 19.3 0.00 0.00 0.00 66 1016.8
20260506231044 20 293 12.9 27.4 0.00 0.00 0.00 66 1016.9
20260506230024 21 293 11.3 20.9 0.00 0.00 0.00 66 1016.9
20260506225023 21 293 12.9 24.1 0.00 0.00 0.00 65 1017.1
20260506224024 21 293 11.3 22.5 0.00 0.00 0.00 65 1017.1
20260506223044 21 315 9.7 20.9 0.00 0.00 0.00 64 1017.2
20260506222024 21 315 9.7 19.3 0.00 0.00 0.00 64 1017.3
20260506221023 21 293 11.3 19.3 0.00 0.03 0.00 63 1017.1
20260506220024 20 293 11.3 20.9 0.00 0.03 0.00 67 1017.4
20260506215024 20 270 11.3 22.5 0.00 0.03 0.00 66 1017.4
20260506214024 20 293 14.5 20.9 0.00 0.03 0.00 65 1017.5
20260506213024 20 293 12.9 24.1 0.00 0.03 0.00 66 1017.7
20260506212044 20 293 14.5 24.1 0.00 0.03 0.00 65 1017.6
20260506211023 20 293 14.5 22.5 0.00 0.03 0.00 65 1017.7
20260506210023 20 293 12.9 24.1 0.00 0.03 0.00 65 1017.8
20260506205024 20 293 14.5 25.7 0.00 0.03 0.00 66 1017.8
20260506204024 20 270 11.3 22.5 0.00 0.03 0.00 66 1017.9
20260506203024 20 315 12.9 22.5 0.00 0.03 0.00 66 1017.9
20260506202023 20 293 16.1 27.4 0.00 0.03 0.00 67 1017.9
20260506201023 20 293 14.5 27.4 0.00 0.03 0.00 65 1017.9
20260506200023 20 293 11.3 24.1 0.00 0.03 0.00 67 1018.1
20260506195023 20 270 12.9 25.7 0.00 0.03 0.00 65 1018.2